FW9434 Weather Reports


time (UTC)temp
C
wind
direction
speed
KPH
gust
KPH
rain 1hr
cm
rain 24hr
cm
rain mn
cm
humidity
%
barometer
mb
20260505194949 27 205 11.3 14.5 0.00 0.00 0.00 35 1008.1
20260505194446 27 236 12.9 20.9 0.00 0.00 0.00 35 1008.0
20260505193946 27 151 9.7 22.5 0.00 0.00 0.00 36 1008.5
20260505193444 27 145 4.8 8.0 0.00 0.00 0.00 37 1008.0
20260505192941 27 136 3.2 3.2 0.00 0.00 0.00 39 1008.4
20260505192440 27 128 4.8 8.0 0.00 0.00 0.00 35 1008.3
20260505191937 27 117 3.2 4.8 0.00 0.00 0.00 36 1008.6
20260505191436 27 145 9.7 11.3 0.00 0.00 0.00 38 1008.5
20260505190932 27 136 12.9 16.1 0.00 0.00 0.00 38 1008.7
20260505190427 27 184 8.0 9.7 0.00 0.00 0.00 40 1008.5
20260505185923 27 122 6.4 12.9 0.00 0.00 0.00 38 1008.9
20260505185421 26 108 3.2 8.0 0.00 0.00 0.00 39 1008.8
20260505184916 27 138 12.9 14.5 0.00 0.00 0.00 39 1008.8
20260505184413 27 216 8.0 11.3 0.00 0.00 0.00 38 1008.7
20260505183910 27 138 3.2 4.8 0.00 0.00 0.00 40 1009.4
20260505183407 27 234 1.6 4.8 0.00 0.00 0.00 39 1009.2
20260505182904 27 163 4.8 11.3 0.00 0.00 0.00 38 1009.3
20260505182401 26 131 6.4 11.3 0.00 0.00 0.00 38 1009.3
20260505181857 27 158 14.5 16.1 0.00 0.00 0.00 38 1009.3
20260505181355 26 163 14.5 17.7 0.00 0.00 0.00 40 1009.2
20260505180851 27 205 4.8 8.0 0.00 0.00 0.00 43 1009.4
20260505180347 26 131 8.0 9.7 0.00 0.00 0.00 43 1009.5
20260505175844 26 163 9.7 11.3 0.00 0.00 0.00 42 1009.2
20260505175340 26 161 19.3 27.4 0.00 0.00 0.00 43 1009.6
20260505174837 26 142 6.4 8.0 0.00 0.00 0.00 44 1009.6
20260505174335 26 133 4.8 9.7 0.00 0.00 0.00 44 1009.6
20260505173830 26 192 12.9 16.1 0.00 0.00 0.00 44 1009.4
20260505173327 26 138 9.7 14.5 0.00 0.00 0.00 44 1009.4
20260505172824 26 119 3.2 8.0 0.00 0.00 0.00 44 1009.8
20260505172322 27 116 6.4 9.7 0.00 0.00 0.00 43 1009.6
20260505171821 27 158 8.0 9.7 0.00 0.00 0.00 44 1009.6
20260505171319 27 222 6.4 11.3 0.00 0.00 0.00 41 1009.8
20260505170815 27 162 3.2 3.2 0.00 0.00 0.00 42 1009.7
20260505170312 26 158 3.2 4.8 0.00 0.00 0.00 43 1010.2
20260505165807 26 181 6.4 11.3 0.00 0.00 0.00 42 1010.1
20260505165306 26 330 3.2 3.2 0.00 0.00 0.00 45 1010.1
20260505164759 26 103 1.6 4.8 0.00 0.00 0.00 47 1009.9
20260505164256 26 180 3.2 4.8 0.00 0.00 0.00 43 1010.0
20260505163755 26 316 3.2 3.2 0.00 0.00 0.00 44 1010.3
20260505163253 26 214 6.4 8.0 0.00 0.00 0.00 43 1010.2
20260505162750 26 163 6.4 8.0 0.00 0.00 0.00 43 1010.5
20260505162247 26 217 1.6 3.2 0.00 0.00 0.00 44 1010.5
20260505161744 25 200 6.4 8.0 0.00 0.00 0.00 45 1010.2
20260505161241 25 218 4.8 8.0 0.00 0.00 0.00 46 1010.4
20260505160738 25 199 14.5 17.7 0.00 0.00 0.00 47 1010.8
20260505160236 25 133 1.6 3.2 0.00 0.00 0.00 47 1010.8
20260505153215 25 256 4.8 4.8 0.00 0.00 0.00 48 1010.9
20260505152712 25 123 0.0 0.0 0.00 0.00 0.00 49 1011.0
20260505152208 24 121 4.8 4.8 0.00 0.00 0.00 50 1010.8
20260505151703 23 201 3.2 3.2 0.00 0.00 0.00 51 1011.1
20260505151201 23 132 1.6 1.6 0.00 0.00 0.00 52 1010.9
20260505150657 23 126 1.6 3.2 0.00 0.00 0.00 52 1011.3
20260505150154 23 162 8.0 9.7 0.00 0.00 0.00 52 1011.4
20260505140622 21 174 3.2 3.2 0.00 0.00 0.00 58 1011.7
20260505140119 21 75 4.8 4.8 0.00 0.00 0.00 59 1011.7
20260505125036 18 171 3.2 3.2 0.00 0.00 0.00 67 1011.4
20260505124533 18 149 1.6 3.2 0.00 0.00 0.00 67 1011.7
20260505124029 18 197 4.8 8.0 0.00 0.00 0.00 66 1011.6
20260505123525 18 150 4.8 9.7 0.00 0.00 0.00 68 1011.3
20260505123021 17 164 3.2 3.2 0.00 0.00 0.00 69 1011.1
20260505122519 17 145 1.6 3.2 0.00 0.00 0.00 69 1011.2
20260505122016 17 167 1.6 3.2 0.00 0.00 0.00 69 1011.3
20260505121512 17 197 3.2 3.2 0.00 0.00 0.00 72 1011.3
20260505121009 17 137 3.2 3.2 0.00 0.00 0.00 72 1011.1
20260505120506 16 117 0.0 0.0 0.00 0.00 0.00 75 1011.3
20260505120006 16 137 1.6 1.6 0.00 0.00 0.00 78 1011.5
20260505115501 15 130 3.2 3.2 0.00 0.00 0.00 80 1011.4
20260505114959 15 131 1.6 3.2 0.00 0.00 0.00 80 1011.3
20260505114455 15 131 1.6 1.6 0.00 0.00 0.00 80 1011.3
20260505113952 15 134 1.6 1.6 0.00 0.00 0.00 79 1011.3
20260505113449 15 134 1.6 1.6 0.00 0.00 0.00 79 1011.7
20260505112944 14 130 0.0 0.0 0.00 0.00 0.00 80 1011.3
20260505112441 13 128 0.0 0.0 0.00 0.00 0.00 80 1011.3
20260505111938 13 128 0.0 0.0 0.00 0.00 0.00 81 1011.2
20260505111432 13 126 0.0 0.0 0.00 0.00 0.00 82 1011.4
20260505110929 13 125 0.0 0.0 0.00 0.00 0.00 81 1011.3
20260505110426 13 125 0.0 0.0 0.00 0.00 0.00 81 1011.3
20260505101857 14 145 1.6 1.6 0.00 0.00 0.00 76 1011.3
20260505101351 14 179 3.2 3.2 0.00 0.00 0.00 76 1011.1
20260505100848 14 140 1.6 1.6 0.00 0.00 0.00 76 1011.3
20260505100344 14 142 1.6 1.6 0.00 0.00 0.00 76 1011.2
20260505095840 14 137 0.0 1.6 0.00 0.00 0.00 75 1011.2
20260505095338 14 74 0.0 1.6 0.00 0.00 0.00 75 1011.2
20260505094833 14 6 1.6 3.2 0.00 0.00 0.00 75 1011.1
20260505094331 14 56 1.6 1.6 0.00 0.00 0.00 75 1011.3
20260505093826 14 62 1.6 1.6 0.00 0.00 0.00 75 1010.7
20260505093324 14 215 3.2 3.2 0.00 0.00 0.00 75 1010.8
20260505092820 14 157 1.6 1.6 0.00 0.00 0.00 75 1010.5
20260505092319 14 131 0.0 0.0 0.00 0.00 0.00 75 1010.4
20260505091816 13 203 3.2 3.2 0.00 0.00 0.00 76 1010.5
20260505091314 13 132 0.0 0.0 0.00 0.00 0.00 77 1010.6
20260505090812 13 132 0.0 0.0 0.00 0.00 0.00 78 1010.5
20260505090310 13 132 0.0 0.0 0.00 0.00 0.00 78 1010.4
20260505085806 13 132 0.0 0.0 0.00 0.00 0.00 79 1010.4
20260505085305 13 132 0.0 0.0 0.00 0.00 0.00 79 1010.4
20260505084802 13 132 0.0 0.0 0.00 0.00 0.00 79 1010.2
20260505084301 13 131 0.0 0.0 0.00 0.00 0.00 78 1010.5
20260505083757 13 132 0.0 0.0 0.00 0.00 0.00 78 1010.4
20260505083254 13 132 0.0 0.0 0.00 0.00 0.00 78 1010.4
20260505082750 13 131 0.0 0.0 0.00 0.00 0.00 78 1010.5
20260505082248 13 132 0.0 0.0 0.00 0.00 0.00 78 1010.4
20260505081743 13 131 0.0 0.0 0.00 0.00 0.00 78 1010.3
20260505081241 13 132 0.0 0.0 0.00 0.00 0.00 78 1010.4
20260505080738 13 131 0.0 0.0 0.00 0.00 0.00 79 1010.5
20260505080233 13 131 0.0 0.0 0.00 0.00 0.00 79 1010.4
20260505075729 13 131 0.0 0.0 0.00 0.00 0.00 78 1010.3
20260505075226 13 131 0.0 0.0 0.00 0.00 0.00 78 1010.4
20260505074723 13 131 0.0 0.0 0.00 0.00 0.00 77 1010.5
20260505074220 13 131 0.0 0.0 0.00 0.00 0.00 77 1010.3
20260505073718 13 131 0.0 0.0 0.00 0.00 0.00 76 1010.4
20260505073216 13 131 0.0 0.0 0.00 0.00 0.00 76 1010.6
20260505072711 13 131 0.0 1.6 0.00 0.00 0.00 75 1010.3
20260505072208 13 131 0.0 0.0 0.00 0.00 0.00 74 1010.4
20260505071703 14 131 0.0 0.0 0.00 0.00 0.00 74 1010.5
20260505071201 14 131 0.0 0.0 0.00 0.00 0.00 73 1010.4
20260505070659 15 131 0.0 0.0 0.00 0.00 0.00 72 1010.4
20260505070154 15 143 1.6 3.2 0.00 0.00 0.00 72 1010.3
20260505065651 15 135 1.6 1.6 0.00 0.00 0.00 71 1010.4
20260505065148 15 131 0.0 0.0 0.00 0.00 0.00 71 1010.3
20260505064644 15 142 1.6 1.6 0.00 0.00 0.00 71 1010.2
20260505064142 15 135 0.0 0.0 0.00 0.00 0.00 71 1010.5
20260505063640 15 142 1.6 1.6 0.00 0.00 0.00 71 1010.3
20260505063136 15 131 1.6 1.6 0.00 0.00 0.00 71 1010.5
20260505062633 15 188 3.2 4.8 0.00 0.00 0.00 71 1010.4
20260505062130 15 138 0.0 0.0 0.00 0.00 0.00 72 1010.3
20260505061627 14 135 1.6 1.6 0.00 0.00 0.00 72 1010.4
20260505061125 14 131 1.6 1.6 0.00 0.00 0.00 73 1010.6
20260505060622 14 131 1.6 1.6 0.00 0.00 0.00 73 1010.6
20260505060119 14 138 1.6 3.2 0.00 0.00 0.00 73 1010.6
20260505055614 14 138 1.6 1.6 0.00 0.00 0.00 73 1010.2
20260505055111 14 159 4.8 4.8 0.00 0.00 0.00 73 1010.6
20260505054608 14 131 3.2 3.2 0.00 0.00 0.00 73 1010.7
20260505054106 14 126 1.6 1.6 0.00 0.00 0.00 73 1010.4
20260505053603 14 134 3.2 3.2 0.00 0.00 0.00 72 1010.8
20260505053059 14 142 1.6 3.2 0.00 0.00 0.00 72 1010.6
20260505052556 14 112 1.6 3.2 0.00 0.00 0.00 72 1010.8
20260505052054 14 118 1.6 1.6 0.00 0.00 0.00 72 1010.8
20260505051551 14 142 1.6 3.2 0.00 0.00 0.00 71 1010.6
20260505051049 14 130 3.2 3.2 0.00 0.00 0.00 71 1010.5
20260505050547 15 157 3.2 3.2 0.00 0.00 0.00 70 1010.8
20260505041514 15 175 4.8 4.8 0.00 0.00 0.00 66 1011.2
20260505041012 15 171 4.8 4.8 0.00 0.00 0.00 65 1011.1
20260505040509 15 135 4.8 4.8 0.00 0.00 0.00 65 1011.1
20260505040006 15 158 3.2 3.2 0.00 0.00 0.00 64 1011.0
20260505035502 15 130 3.2 3.2 0.00 0.00 0.00 64 1011.0
20260505034959 15 155 4.8 4.8 0.00 0.00 0.00 63 1010.9
20260505034455 15 149 3.2 3.2 0.00 0.00 0.00 62 1010.9
20260505033953 15 175 4.8 4.8 0.00 0.00 0.00 61 1010.9
20260505033449 15 151 4.8 4.8 0.00 0.00 0.00 61 1011.0
20260505032948 15 169 4.8 4.8 0.00 0.00 0.00 61 1010.6
20260505032445 16 136 4.8 4.8 0.00 0.00 0.00 59 1010.9
20260505031941 16 155 4.8 8.0 0.00 0.00 0.00 59 1011.0
20260505031438 16 141 4.8 4.8 0.00 0.00 0.00 58 1010.8
20260505030935 16 152 4.8 4.8 0.00 0.00 0.00 58 1011.3
20260505030431 16 159 4.8 4.8 0.00 0.00 0.00 58 1011.0
20260505025926 16 137 4.8 4.8 0.00 0.00 0.00 57 1011.0
20260505025424 16 137 3.2 3.2 0.00 0.00 0.00 56 1011.3
20260505024923 16 144 4.8 4.8 0.00 0.00 0.00 56 1011.2
20260505024419 16 142 3.2 3.2 0.00 0.00 0.00 55 1011.0
20260505023916 16 135 3.2 3.2 0.00 0.00 0.00 55 1010.9
20260505023414 16 175 4.8 4.8 0.00 0.00 0.00 54 1011.1
20260505022911 16 131 3.2 3.2 0.00 0.00 0.00 53 1010.9
20260505022408 16 142 4.8 8.0 0.00 0.00 0.00 52 1011.3
20260505021905 16 141 4.8 8.0 0.00 0.00 0.00 51 1011.1
20260505021401 16 128 6.4 8.0 0.00 0.00 0.00 51 1011.1
20260505020857 16 149 4.8 4.8 0.00 0.00 0.00 51 1011.2
20260505020353 17 145 4.8 4.8 0.00 0.00 0.00 50 1011.2
20260505015850 17 145 4.8 4.8 0.00 0.00 0.00 50 1011.2
20260505015347 17 141 4.8 4.8 0.00 0.00 0.00 49 1011.2
20260505014844 17 142 3.2 3.2 0.00 0.00 0.00 49 1011.2
20260505014341 17 142 3.2 3.2 0.00 0.00 0.00 48 1010.8
20260505013838 17 141 3.2 3.2 0.00 0.00 0.00 48 1010.9
20260505013335 17 136 3.2 3.2 0.00 0.00 0.00 48 1010.9
20260505012833 17 131 1.6 3.2 0.00 0.00 0.00 47 1011.0
20260505012331 17 142 3.2 3.2 0.00 0.00 0.00 47 1010.7
20260505011826 17 142 3.2 3.2 0.00 0.00 0.00 47 1010.7
20260505011324 18 146 3.2 3.2 0.00 0.00 0.00 47 1010.8
20260505010819 18 142 3.2 3.2 0.00 0.00 0.00 47 1010.7
20260505010315 18 141 3.2 3.2 0.00 0.00 0.00 46 1010.6
20260505005812 18 131 3.2 3.2 0.00 0.00 0.00 46 1010.6
20260505005309 18 135 3.2 3.2 0.00 0.00 0.00 46 1010.3
20260505004807 18 142 1.6 3.2 0.00 0.00 0.00 45 1010.3
20260505004302 18 168 3.2 3.2 0.00 0.00 0.00 45 1010.5
20260505003800 18 142 1.6 1.6 0.00 0.00 0.00 45 1010.4
20260505003257 18 137 1.6 3.2 0.00 0.00 0.00 45 1010.3
20260505002754 18 129 1.6 3.2 0.00 0.00 0.00 45 1010.2
20260505002251 18 144 3.2 3.2 0.00 0.00 0.00 44 1010.4
20260505001749 18 142 4.8 8.0 0.00 0.00 0.00 44 1010.4
20260505001246 18 131 1.6 1.6 0.00 0.00 0.00 44 1010.0
20260505000743 19 140 3.2 3.2 0.00 0.00 0.00 43 1010.0
20260505000241 19 131 3.2 3.2 0.00 0.00 0.00 43 1010.1
20260504235737 19 142 1.6 1.6 0.00 0.00 0.00 42 1010.0
20260504235233 20 164 3.2 3.2 0.00 0.00 0.00 42 1009.9
20260504234731 20 142 4.8 4.8 0.00 0.00 0.00 42 1009.6
20260504234228 20 157 6.4 8.0 0.00 0.00 0.00 42 1009.7
20260504233724 20 120 3.2 3.2 0.00 0.00 0.00 41 1009.6
20260504233220 20 152 0.0 1.6 0.00 0.00 0.00 42 1009.5
20260504232717 20 149 3.2 3.2 0.00 0.00 0.00 41 1009.4
20260504232214 20 190 8.0 11.3 0.00 0.00 0.00 41 1009.4
20260504231711 20 186 4.8 8.0 0.00 0.00 0.00 41 1009.5
20260504231207 20 145 3.2 3.2 0.00 0.00 0.00 41 1009.5
20260504230703 20 149 3.2 3.2 0.00 0.00 0.00 40 1009.4
20260504230202 20 127 1.6 1.6 0.00 0.00 0.00 40 1009.4
20260504225700 20 162 1.6 1.6 0.00 0.00 0.00 40 1009.4
20260504225156 20 142 4.8 4.8 0.00 0.00 0.00 40 1009.5
20260504224653 20 184 4.8 8.0 0.00 0.00 0.00 39 1009.2
20260504224150 20 150 3.2 3.2 0.00 0.00 0.00 39 1009.2
20260504223647 21 174 3.2 3.2 0.00 0.00 0.00 40 1009.4
20260504223142 21 203 4.8 8.0 0.00 0.00 0.00 39 1009.3
20260504222640 21 120 1.6 4.8 0.00 0.00 0.00 39 1009.3
20260504222136 21 130 1.6 3.2 0.00 0.00 0.00 39 1009.6
20260504221634 21 90 0.0 1.6 0.00 0.00 0.00 39 1009.4
20260504221131 21 144 1.6 1.6 0.00 0.00 0.00 39 1009.4
20260504220627 21 176 6.4 9.7 0.00 0.00 0.00 39 1009.3
20260504220125 21 142 4.8 8.0 0.00 0.00 0.00 39 1009.4
20260504215621 21 142 1.6 3.2 0.00 0.00 0.00 39 1009.6
20260504215119 21 89 1.6 1.6 0.00 0.00 0.00 38 1009.3
20260504214614 21 164 4.8 11.3 0.00 0.00 0.00 39 1009.5
20260504214111 21 174 1.6 3.2 0.00 0.00 0.00 38 1009.8
20260504213607 21 96 1.6 1.6 0.00 0.00 0.00 39 1009.5
20260504213104 21 127 0.0 1.6 0.00 0.00 0.00 39 1009.7
20260504212600 21 163 4.8 4.8 0.00 0.00 0.00 39 1009.8
20260504212058 21 151 1.6 3.2 0.00 0.00 0.00 38 1009.9
20260504211554 21 141 1.6 4.8 0.00 0.00 0.00 38 1009.9
20260504211051 21 214 3.2 4.8 0.00 0.00 0.00 38 1009.8
20260504210549 21 236 4.8 4.8 0.00 0.00 0.00 37 1010.1
20260504210045 21 238 3.2 3.2 0.00 0.00 0.00 37 1009.7
20260504205543 22 163 3.2 3.2 0.00 0.00 0.00 39 1010.1
20260504205041 21 4 4.8 4.8 0.00 0.00 0.00 37 1009.8
20260504204538 21 140 3.2 4.8 0.00 0.00 0.00 37 1009.7
20260504204037 21 270 1.6 3.2 0.00 0.00 0.00 36 1009.6
20260504203535 21 152 6.4 8.0 0.00 0.00 0.00 37 1009.8
20260504203032 21 201 4.8 4.8 0.00 0.00 0.00 36 1009.6
20260504202527 21 141 6.4 9.7 0.00 0.00 0.00 37 1009.6
20260504202025 21 185 1.6 3.2 0.00 0.00 0.00 36 1009.7
20260504201521 21 200 6.4 8.0 0.00 0.00 0.00 36 1009.9
20260504201020 21 206 8.0 11.3 0.00 0.00 0.00 36 1010.0
20260504200515 21 134 3.2 3.2 0.00 0.00 0.00 37 1009.9
20260504200012 21 119 8.0 9.7 0.00 0.00 0.00 39 1010.0
20260504195508 21 149 1.6 3.2 0.00 0.00 0.00 38 1010.1